Weather History for Truckee-Tahoe, CA

Change the Weather History Date:

Tuesday, October 8, 2013

  Actual Average Record
Temperature  
Mean Temperature 40 °F -  
Max Temperature 60 °F 65 °F 87 °F (1996)
Min Temperature 21 °F 30 °F 17 °F (1968)
Degree Days  
Heating Degree Days 24    
Moisture  
Dew Point 19 °F    
Average Humidity 48    
Maximum Humidity 74    
Minimum Humidity 19    
Precipitation  
Precipitation 0.00 in - - ()
Sea Level Pressure  
Sea Level Pressure 29.97 in    
Wind  
Wind Speed 2 mph (SW)    
Max Wind Speed 13 mph    
Max Gust Speed 18 mph    
Visibility 10 miles    
Events      
Averages and records for this station are not official NWS values.
T = Trace of Precipitation, MM = Missing Value Source: NWS Daily Summary

Daily Weather History Graph

Daily Weather History Graph

Search for Another Location

Airport:

Trip Planner

Search our weather history database for the weather conditions in past years. The results will help you decide how hot, cold, wet, or windy it might be!

Date:

Astronomy

Oct. 08, 2013 Rise Set
Actual Time 7:03 AM PDT 6:31 PM PDT
Civil Twilight 6:36 AM PDT 6:58 PM PDT
Nautical Twilight 6:05 AM PDT 7:29 PM PDT
Astronomical Twilight 5:34 AM PDT 8:00 PM PDT
Moon 11:01 AM PDT (10/8) 9:14 PM PDT (10/8)
Length of Visible Light 12h 21m
Length of Day
11h 27m
Waxing Crescent, 17% of the Moon is Illuminated
Oct 8
Waxing Crescent
Oct 11
First Quarter
Oct 18
Full
Oct 26
Last Quarter
Nov 3
New

Hourly Weather History & Observations

Time (PDT) Temp. Windchill Dew Point Humidity Pressure Visibility Wind Dir Wind Speed Gust Speed Precip Events Conditions
12:15 AM 37.4 °F 34.9 °F 17.6 °F 45% 30.08 in 10.0 mi South 3.5 mph - N/A   Clear
12:35 AM 39.2 °F - 15.8 °F 39% 30.07 in 10.0 mi Calm Calm - N/A   Clear
12:55 AM 35.6 °F 32.8 °F 17.6 °F 48% 30.07 in 10.0 mi SSE 3.5 mph - N/A   Clear
1:15 AM 35.6 °F - 17.6 °F 48% 30.07 in 10.0 mi Calm Calm - N/A   Clear
1:35 AM 32.0 °F - 17.6 °F 55% 30.07 in 10.0 mi Calm Calm - N/A   Clear
1:55 AM 32.0 °F - 15.8 °F 51% 30.08 in 10.0 mi Calm Calm - N/A   Clear
2:15 AM 32.0 °F 28.7 °F 15.8 °F 51% 30.08 in 10.0 mi SSE 3.5 mph - N/A   Clear
2:35 AM 28.4 °F - 15.8 °F 59% 30.07 in 10.0 mi Calm Calm - N/A   Clear
2:55 AM 32.0 °F - 15.8 °F 51% 30.07 in 10.0 mi Calm Calm - N/A   Clear
3:15 AM 26.6 °F - 15.8 °F 64% 30.06 in 10.0 mi Calm Calm - N/A   Clear
3:35 AM 28.4 °F - 17.6 °F 64% 30.07 in 10.0 mi Calm Calm - N/A   Clear
3:55 AM 28.4 °F - 17.6 °F 64% 30.07 in 10.0 mi Calm Calm - N/A   Clear
4:15 AM 28.4 °F - 17.6 °F 64% 30.07 in 10.0 mi Calm Calm - N/A   Clear
4:35 AM 24.8 °F 20.5 °F 17.6 °F 74% 30.07 in 10.0 mi South 3.5 mph - N/A   Clear
4:55 AM 24.8 °F - 15.8 °F 69% 30.07 in 10.0 mi Calm Calm - N/A   Clear
5:15 AM 26.6 °F - 15.8 °F 64% 30.07 in 10.0 mi Calm Calm - N/A   Clear
5:35 AM 26.6 °F - 15.8 °F 64% 30.07 in 10.0 mi Calm Calm - N/A   Clear
5:55 AM 23.0 °F - 14.0 °F 68% 30.08 in 10.0 mi Calm Calm - N/A   Clear
6:15 AM 21.2 °F 16.4 °F 14.0 °F 74% 30.08 in 10.0 mi SSW 3.5 mph - N/A   Clear
6:35 AM 23.0 °F - 14.0 °F 68% 30.07 in 10.0 mi Calm Calm - N/A   Clear
6:55 AM 23.0 °F - 14.0 °F 68% 30.08 in 10.0 mi Calm Calm - N/A   Clear
7:45 AM 23.0 °F 18.4 °F 15.8 °F 74% 30.08 in 10.0 mi South 3.5 mph - N/A   Clear
8:45 AM 32.0 °F - 15.8 °F 51% 30.07 in 10.0 mi Calm Calm - N/A   Clear
9:45 AM 41.0 °F - 15.8 °F 36% 30.06 in 10.0 mi Calm Calm - N/A   Clear
10:50 AM 48.2 °F - 17.6 °F 30% 30.04 in 10.0 mi NNW 5.8 mph - N/A   Partly Cloudy
11:45 AM 53.6 °F - 17.6 °F 24% 30.00 in 10.0 mi Calm Calm - N/A   Scattered Clouds
12:45 PM 59.0 °F - 44.6 °F 59% 29.96 in 10.0 mi NE 5.8 mph - N/A   Mostly Cloudy
1:50 PM 60.8 °F - 17.6 °F 19% 29.93 in 10.0 mi West 11.5 mph 16.1 mph N/A   Mostly Cloudy
2:55 PM 57.2 °F - 19.4 °F 23% 29.92 in 10.0 mi West 11.5 mph - N/A   Mostly Cloudy
3:45 PM 57.2 °F - 21.2 °F 25% 29.91 in 10.0 mi West 12.7 mph 18.4 mph N/A   Mostly Cloudy
4:45 PM 55.4 °F - 21.2 °F 26% 29.89 in 10.0 mi SSW 9.2 mph - N/A   Mostly Cloudy
5:55 PM 55.4 °F - 19.4 °F 25% 29.87 in 10.0 mi WSW 8.1 mph - N/A   Clear
6:15 PM 53.6 °F - 21.2 °F 28% 29.87 in 10.0 mi WSW 10.4 mph - N/A   Clear
6:35 PM 50.0 °F - 19.4 °F 30% 29.87 in 10.0 mi SW 5.8 mph - N/A   Clear
6:55 PM 48.2 °F - 19.4 °F 32% 29.87 in 10.0 mi SW 4.6 mph - N/A   Clear
7:15 PM 48.2 °F - 21.2 °F 34% 29.87 in 10.0 mi WSW 5.8 mph - N/A   Clear
7:35 PM 48.2 °F - 21.2 °F 34% 29.86 in 10.0 mi West 5.8 mph - N/A   Scattered Clouds
7:55 PM 48.2 °F - 23.0 °F 37% 29.86 in 10.0 mi West 3.5 mph - N/A   Mostly Cloudy
8:15 PM 48.2 °F - 23.0 °F 37% 29.86 in 10.0 mi Calm Calm - N/A   Scattered Clouds
8:35 PM 46.4 °F - 21.2 °F 37% 29.86 in 10.0 mi Calm Calm - N/A   Scattered Clouds
8:55 PM 44.6 °F 43.1 °F 21.2 °F 39% 29.85 in 10.0 mi SE 3.5 mph - N/A   Mostly Cloudy
9:15 PM 41.0 °F - 19.4 °F 42% 29.85 in 10.0 mi Calm Calm - N/A   Mostly Cloudy
9:35 PM 41.0 °F 39.0 °F 21.2 °F 45% 29.84 in 10.0 mi ESE 3.5 mph - N/A   Scattered Clouds
9:55 PM 41.0 °F 39.0 °F 21.2 °F 45% 29.84 in 10.0 mi South 3.5 mph - N/A   Clear
10:15 PM 41.0 °F - 23.0 °F 49% 29.83 in 10.0 mi Calm Calm - N/A   Clear
10:35 PM 41.0 °F 38.0 °F 21.2 °F 45% 29.82 in 10.0 mi SE 4.6 mph - N/A   Clear
10:55 PM 39.2 °F - 21.2 °F 49% 29.81 in 10.0 mi Calm Calm - N/A   Clear
11:15 PM 39.2 °F - 21.2 °F 49% 29.80 in 10.0 mi Calm Calm - N/A   Partly Cloudy
11:35 PM 41.0 °F - 23.0 °F 49% 29.79 in 10.0 mi Calm Calm - N/A   Mostly Cloudy
11:55 PM 39.2 °F 37.0 °F 23.0 °F 52% 29.78 in 10.0 mi NW 3.5 mph - N/A   Partly Cloudy